Weather History for KLEX - August, 2013

Change the Weather History Date:

Friday, August 2, 2013

  Actual Average Record
Temperature  
Mean Temperature 72 °F 76 °F  
Max Temperature 83 °F 86 °F 98 °F (2002)
Min Temperature 61 °F 66 °F 55 °F (1920)
Degree Days  
Heating Degree Days 0 0  
Month to date heating degree days 0 0  
Since 1 June heating degree days 0 11  
Since 1 July heating degree days 0 0  
Cooling Degree Days 7 11  
Month to date cooling degree days 15 22  
Year to date cooling degree days 738 718  
Since 1 June cooling degree days 585 611  
Growing Degree Days 22 (Base 50)    
Moisture  
Dew Point 61 °F    
Average Humidity 72    
Maximum Humidity 93    
Minimum Humidity 51    
Precipitation  
Precipitation 0.00 in 0.12 in 8.04 in (1932)
Month to date precipitation T 0.25  
Year to date precipitation 38.50 28.67  
Snow  
Snow 0.00 in 0.00 in - ()
Month to date snowfall 0.0 0.0  
Since 1 June snowfall 0.0 0.0  
Since 1 July snowfall 0.0 0.0  
Snow Depth 0.00 in    
Sea Level Pressure  
Sea Level Pressure 30.02 in    
Wind  
Wind Speed 5 mph (SSW)    
Max Wind Speed 13 mph    
Max Gust Speed 15 mph    
Visibility 10 miles    
Events      
T = Trace of Precipitation, MM = Missing Value Source: NWS Daily Summary

Daily Weather History Graph

Daily Weather History Graph

Search for Another Location

Airport or City:

Trip Planner

Search our weather history database for the weather conditions in past years. The results will help you decide how hot, cold, wet, or windy it might be!

Date:

Astronomy

Aug. 02, 2013 Rise Set
Actual Time 6:42 AM EDT 8:46 PM EDT
Civil Twilight 6:13 AM EDT 9:15 PM EDT
Nautical Twilight 5:37 AM EDT 9:50 PM EDT
Astronomical Twilight 4:59 AM EDT 10:29 PM EDT
Moon 3:03 AM EDT (8/2) 5:42 PM EDT (8/2)
Length of Visible Light 15h 02m
Length of Day
14h 03m
Waning Crescent, 16% of the Moon is Illuminated
Aug 2
Waning Crescent
Aug 6
New
Aug 14
First Quarter
Aug 20
Full
Aug 28
Last Quarter

Hourly Weather History & Observations

Time (EDT) Temp. Heat Index Dew Point Humidity Pressure Visibility Wind Dir Wind Speed Gust Speed Precip Events Conditions
12:54 AM 63.0 °F - 60.1 °F 90% 30.01 in 10.0 mi SSW 3.5 mph - N/A   Clear
1:54 AM 64.0 °F - 60.1 °F 87% 30.01 in 10.0 mi South 3.5 mph - N/A   Clear
2:54 AM 62.1 °F - 59.0 °F 90% 29.99 in 10.0 mi South 3.5 mph - N/A   Clear
3:54 AM 63.0 °F - 60.1 °F 90% 29.99 in 10.0 mi SSW 3.5 mph - N/A   Clear
4:54 AM 63.0 °F - 59.0 °F 87% 30.00 in 10.0 mi SSW 3.5 mph - N/A   Partly Cloudy
5:54 AM 63.0 °F - 59.0 °F 87% 30.01 in 10.0 mi Calm Calm - N/A   Clear
6:54 AM 62.1 °F - 59.0 °F 90% 30.02 in 10.0 mi South 4.6 mph - N/A   Clear
7:54 AM 64.0 °F - 61.0 °F 90% 30.02 in 10.0 mi SSW 3.5 mph - N/A   Clear
8:54 AM 69.1 °F - 63.0 °F 81% 30.01 in 10.0 mi SSW 3.5 mph - N/A   Clear
9:54 AM 73.0 °F - 63.0 °F 71% 30.02 in 10.0 mi SSW 3.5 mph - N/A   Clear
10:54 AM 77.0 °F - 62.1 °F 60% 30.04 in 10.0 mi SW 5.8 mph - N/A   Clear
11:54 AM 78.1 °F - 62.1 °F 58% 30.04 in 10.0 mi SW 6.9 mph - N/A   Clear
12:54 PM 80.1 °F 81.1 °F 61.0 °F 52% 30.05 in 10.0 mi SW 6.9 mph - N/A   Clear
1:54 PM 80.1 °F 81.1 °F 61.0 °F 52% 30.05 in 10.0 mi WSW 9.2 mph - N/A   Clear
2:54 PM 81.0 °F 81.7 °F 61.0 °F 50% 30.04 in 10.0 mi SW 4.6 mph - N/A   Partly Cloudy
3:54 PM 81.0 °F 81.7 °F 61.0 °F 50% 30.04 in 10.0 mi SW 9.2 mph - N/A   Clear
4:54 PM 81.0 °F 81.7 °F 61.0 °F 50% 30.02 in 10.0 mi SW 8.1 mph - N/A   Clear
5:54 PM 79.0 °F - 61.0 °F 54% 30.01 in 10.0 mi SW 6.9 mph - N/A   Clear
6:54 PM 80.1 °F 81.2 °F 62.1 °F 54% 30.00 in 10.0 mi SW 9.2 mph - N/A   Clear
7:54 PM 77.0 °F - 63.0 °F 62% 30.00 in 10.0 mi SW 5.8 mph - N/A   Clear
8:54 PM 75.0 °F - 63.0 °F 66% 30.00 in 10.0 mi South 4.6 mph - N/A   Clear
9:54 PM 72.0 °F - 63.0 °F 73% 30.01 in 10.0 mi SSW 5.8 mph - N/A   Clear
10:54 PM 72.0 °F - 63.0 °F 73% 30.01 in 10.0 mi South 4.6 mph - N/A   Clear
11:54 PM 71.1 °F - 63.0 °F 75% 30.00 in 10.0 mi South 6.9 mph - N/A   Clear